Location: Caltech
(34.1382°N, 118.1253°W)
Time: 11:58:54
(UTC-07:00)

Cosmos 2251 Rocket - Visible Passes

Search period start: 02 September 2015 00:00
Search period end: 12 September 2015 00:00
Orbit: 766 x 792 km, 74.0° (Epoch: 02 September)

Date Brightness Start Highest point End Pass type
(mag) Time Alt. Az. Time Alt. Az. Time Alt. Az.
02 Sep 6.3 22:44:34 10° NNE 22:44:34 10° NNE 22:44:35 10° NNE visible
04 Sep 6.4 23:17:40 12° NNW 23:17:40 12° NNW 23:18:17 10° NNW visible
05 Sep 6.0 22:43:49 17° N 22:43:49 17° N 22:45:06 10° N visible
06 Sep 5.5 22:09:48 21° N 22:09:48 21° N 22:11:37 10° N visible
07 Sep 4.9 21:35:30 28° NNE 21:35:30 28° NNE 21:37:54 10° NNE visible
07 Sep 6.5 23:15:53 10° NW 23:15:53 10° NW 23:16:31 10° NW visible
08 Sep 4.3 21:00:36 35° NE 21:00:36 35° NE 21:03:57 10° NNE visible
08 Sep 6.0 22:40:56 17° WNW 22:41:31 17° WNW 22:44:53 10° NNW visible
09 Sep 4.3 20:20:46 10° SSE 20:25:12 29° E 20:29:43 10° NE visible
09 Sep 5.3 22:02:56 10° SW 22:07:28 28° WNW 22:11:55 10° N visible
10 Sep 4.9 19:48:20 10° SE 19:51:33 17° E 19:55:01 10° ENE visible
10 Sep 4.5 21:28:28 10° SW 21:33:32 45° WNW 21:38:34 10° N visible
11 Sep 3.6 20:54:24 10° SSW 20:59:41 77° WNW 21:04:59 10° NNE visible
